| time (UTC) | temp F | wind direction | speed MPH | gust MPH | rain 1hr in | rain 24hr in | rain mn in | humidity % | barometer mb |
| 20260905014655 | 55 | 269 | 0.0 | 0.0 | 0.00 | 0.13 | 0.13 | 99 | 1015.1 |
| 20260905014151 | 55 | 267 | 0.0 | 0.0 | 0.00 | 0.13 | 0.13 | 99 | 1014.8 |
| 20260905013648 | 55 | 270 | 0.0 | 0.0 | 0.00 | 0.13 | 0.13 | 99 | 1015.1 |
| 20260905013143 | 55 | 270 | 0.0 | 1.0 | 0.00 | 0.13 | 0.13 | 99 | 1014.8 |
| 20260905012638 | 56 | 270 | 0.0 | 0.0 | 0.24 | 0.13 | 0.13 | 99 | 1014.4 |
| 20260905012134 | 57 | 7 | 1.0 | 1.0 | 0.59 | 0.13 | 0.13 | 96 | 1014.1 |
| 20260905011630 | 58 | 322 | 0.0 | 1.0 | 0.47 | 0.08 | 0.08 | 93 | 1014.4 |
| 20260905011125 | 59 | 307 | 0.0 | 1.0 | 0.12 | 0.02 | 0.02 | 90 | 1014.4 |
| 20260905010620 | 61 | 134 | 1.0 | 2.0 | 0.00 | 0.00 | 0.00 | 82 | 1014.1 |
| 20260905010117 | 64 | 172 | 3.0 | 3.0 | 0.00 | 0.00 | 0.00 | 70 | 1014.1 |
| 20260905005612 | 65 | 169 | 4.0 | 6.0 | 0.00 | 0.00 | 0.00 | 67 | 1013.7 |
| 20260905005107 | 66 | 186 | 2.0 | 2.0 | 0.00 | 0.00 | 0.00 | 65 | 1013.7 |
| 20260905004601 | 67 | 199 | 8.0 | 10.0 | 0.00 | 0.00 | 0.00 | 63 | 1013.7 |
| 20260905004057 | 68 | 220 | 1.0 | 1.0 | 0.00 | 0.00 | 0.00 | 63 | 1013.4 |
| 20260905003553 | 68 | 249 | 1.0 | 1.0 | 0.00 | 0.00 | 0.00 | 59 | 1013.7 |
| 20260905003048 | 67 | 255 | 2.0 | 2.0 | 0.00 | 0.00 | 0.00 | 60 | 1013.7 |
| 20260905002543 | 67 | 157 | 1.0 | 1.0 | 0.00 | 0.00 | 0.00 | 59 | 1013.4 |
| 20260905002038 | 67 | 242 | 0.0 | 1.0 | 0.00 | 0.00 | 0.00 | 59 | 1013.4 |
| 20260905001533 | 66 | 247 | 0.0 | 0.0 | 0.00 | 0.00 | 0.00 | 59 | 1013.4 |
| 20260905001026 | 66 | 179 | 2.0 | 3.0 | 0.00 | 0.00 | 0.00 | 57 | 1013.4 |
| 20260905000522 | 66 | 296 | 0.0 | 1.0 | 0.00 | 0.00 | 0.00 | 56 | 1013.4 |
| 20260905000019 | 67 | 191 | 1.0 | 2.0 | 0.00 | 0.00 | 0.00 | 57 | 1013.4 |
| 20260904235513 | 67 | 188 | 3.0 | 3.0 | 0.00 | 0.00 | 0.00 | 57 | 1013.4 |
| 20260904235013 | 69 | 210 | 2.0 | 2.0 | 0.00 | 0.00 | 0.00 | 61 | 1013.4 |
| 20260904234512 | 69 | 272 | 0.0 | 0.0 | 0.00 | 0.00 | 0.00 | 58 | 1013.4 |
| 20260904234003 | 69 | 279 | 2.0 | 2.0 | 0.00 | 0.00 | 0.00 | 54 | 1013.4 |
| 20260904233458 | 69 | 197 | 1.0 | 2.0 | 0.00 | 0.00 | 0.00 | 56 | 1013.4 |
| 20260904232954 | 70 | 183 | 3.0 | 5.0 | 0.00 | 0.00 | 0.00 | 56 | 1013.1 |
| 20260904232450 | 69 | 216 | 1.0 | 1.0 | 0.00 | 0.00 | 0.00 | 62 | 1013.1 |
| 20260904231947 | 69 | 192 | 5.0 | 6.0 | 0.00 | 0.00 | 0.00 | 57 | 1013.1 |
| 20260904231442 | 70 | 222 | 3.0 | 3.0 | 0.00 | 0.00 | 0.00 | 54 | 1013.1 |
| 20260904230936 | 70 | 236 | 1.0 | 1.0 | 0.00 | 0.00 | 0.00 | 59 | 1013.4 |
| 20260904230436 | 69 | 175 | 0.0 | 1.0 | 0.00 | 0.00 | 0.00 | 58 | 1013.4 |
| 20260904225931 | 70 | 186 | 3.0 | 3.0 | 0.00 | 0.00 | 0.00 | 55 | 1013.1 |
| 20260904225428 | 69 | 200 | 3.0 | 3.0 | 0.00 | 0.00 | 0.00 | 63 | 1013.4 |
| 20260904224923 | 69 | 243 | 3.0 | 3.0 | 0.00 | 0.00 | 0.00 | 63 | 1013.1 |
| 20260904224419 | 68 | 181 | 2.0 | 2.0 | 0.00 | 0.00 | 0.00 | 60 | 1013.1 |
| 20260904223919 | 67 | 196 | 3.0 | 3.0 | 0.00 | 0.00 | 0.00 | 60 | 1013.4 |
| 20260904223418 | 64 | 198 | 3.0 | 3.0 | 0.00 | 0.00 | 0.00 | 80 | 1013.1 |
| 20260904222914 | 63 | 189 | 1.0 | 1.0 | 0.00 | 0.00 | 0.00 | 80 | 1013.4 |
| 20260904222409 | 65 | 205 | 2.0 | 2.0 | 0.00 | 0.00 | 0.00 | 74 | 1013.4 |
| 20260904221909 | 66 | 128 | 2.0 | 2.0 | 0.00 | 0.00 | 0.00 | 65 | 1013.1 |
| 20260904221403 | 67 | 160 | 1.0 | 1.0 | 0.00 | 0.00 | 0.00 | 63 | 1013.4 |
| 20260904220859 | 67 | 130 | 3.0 | 5.0 | 0.00 | 0.00 | 0.00 | 64 | 1013.1 |
| 20260904220358 | 68 | 171 | 3.0 | 5.0 | 0.00 | 0.00 | 0.00 | 62 | 1013.1 |
| 20260904215853 | 68 | 255 | 1.0 | 1.0 | 0.00 | 0.00 | 0.00 | 59 | 1013.1 |
| 20260904215348 | 69 | 168 | 5.0 | 7.0 | 0.00 | 0.00 | 0.00 | 58 | 1013.4 |
| 20260904214839 | 70 | 176 | 3.0 | 3.0 | 0.00 | 0.00 | 0.00 | 58 | 1013.1 |
| 20260904214334 | 69 | 270 | 0.0 | 1.0 | 0.00 | 0.00 | 0.00 | 61 | 1013.1 |
| 20260904213832 | 69 | 213 | 4.0 | 5.0 | 0.00 | 0.00 | 0.00 | 57 | 1013.1 |
| 20260904213327 | 69 | 130 | 2.0 | 3.0 | 0.00 | 0.00 | 0.00 | 56 | 1013.1 |
| 20260904212824 | 70 | 189 | 1.0 | 2.0 | 0.00 | 0.00 | 0.00 | 59 | 1013.1 |
| 20260904212323 | 69 | 129 | 2.0 | 5.0 | 0.00 | 0.00 | 0.00 | 60 | 1013.1 |
| 20260904211819 | 69 | 138 | 2.0 | 2.0 | 0.00 | 0.00 | 0.00 | 60 | 1013.1 |
| 20260904211314 | 72 | 176 | 2.0 | 5.0 | 0.00 | 0.00 | 0.00 | 56 | 1013.1 |
| 20260904210809 | 71 | 78 | 2.0 | 3.0 | 0.00 | 0.00 | 0.00 | 58 | 1013.1 |
| 20260904210308 | 70 | 245 | 0.0 | 0.0 | 0.00 | 0.00 | 0.00 | 56 | 1013.1 |
| 20260904205804 | 68 | 198 | 2.0 | 3.0 | 0.00 | 0.00 | 0.00 | 60 | 1013.1 |
| 20260904205300 | 68 | 128 | 2.0 | 2.0 | 0.00 | 0.00 | 0.00 | 59 | 1013.1 |
| 20260904204756 | 67 | 296 | 2.0 | 2.0 | 0.00 | 0.00 | 0.00 | 59 | 1013.1 |
| 20260904204252 | 68 | 129 | 5.0 | 8.0 | 0.00 | 0.00 | 0.00 | 61 | 1013.1 |
| 20260904203748 | 68 | 212 | 2.0 | 3.0 | 0.00 | 0.00 | 0.00 | 64 | 1013.1 |
| 20260904203244 | 69 | 216 | 2.0 | 3.0 | 0.00 | 0.00 | 0.00 | 62 | 1013.1 |
| 20260904202740 | 67 | 141 | 2.0 | 2.0 | 0.00 | 0.00 | 0.00 | 64 | 1012.7 |
| 20260904202236 | 68 | 159 | 0.0 | 1.0 | 0.00 | 0.00 | 0.00 | 63 | 1013.1 |
| 20260904201732 | 68 | 189 | 2.0 | 3.0 | 0.00 | 0.00 | 0.00 | 64 | 1013.1 |
| 20260904201231 | 67 | 215 | 1.0 | 1.0 | 0.00 | 0.00 | 0.00 | 65 | 1013.1 |
| 20260904200726 | 67 | 198 | 1.0 | 1.0 | 0.00 | 0.00 | 0.00 | 64 | 1013.1 |
| 20260904200221 | 67 | 226 | 2.0 | 2.0 | 0.00 | 0.00 | 0.00 | 62 | 1012.7 |
| 20260904195720 | 66 | 245 | 1.0 | 1.0 | 0.00 | 0.00 | 0.00 | 64 | 1012.7 |
| 20260904195218 | 63 | 190 | 1.0 | 1.0 | 0.00 | 0.00 | 0.00 | 76 | 1013.1 |
| 20260904194714 | 63 | 168 | 2.0 | 3.0 | 0.00 | 0.00 | 0.00 | 71 | 1013.1 |
| 20260904194213 | 63 | 208 | 0.0 | 1.0 | 0.00 | 0.00 | 0.00 | 74 | 1013.1 |
| 20260904193708 | 64 | 219 | 1.0 | 2.0 | 0.00 | 0.00 | 0.00 | 70 | 1013.1 |
| 20260904193205 | 65 | 145 | 3.0 | 5.0 | 0.00 | 0.00 | 0.00 | 68 | 1013.1 |
| 20260904192659 | 66 | 165 | 5.0 | 6.0 | 0.00 | 0.00 | 0.00 | 64 | 1013.1 |
| 20260904192154 | 66 | 168 | 2.0 | 3.0 | 0.00 | 0.00 | 0.00 | 70 | 1013.1 |
| 20260904191651 | 67 | 229 | 0.0 | 1.0 | 0.00 | 0.00 | 0.00 | 71 | 1013.1 |
| 20260904191147 | 67 | 271 | 0.0 | 0.0 | 0.00 | 0.00 | 0.00 | 75 | 1013.1 |
| 20260904190643 | 66 | 168 | 2.0 | 2.0 | 0.00 | 0.00 | 0.00 | 72 | 1013.1 |
| 20260904190133 | 65 | 164 | 0.0 | 0.0 | 0.00 | 0.00 | 0.00 | 72 | 1013.1 |
| 20260904185630 | 64 | 36 | 0.0 | 0.0 | 0.00 | 0.00 | 0.00 | 77 | 1013.1 |
| 20260904185130 | 64 | 276 | 1.0 | 2.0 | 0.00 | 0.00 | 0.00 | 75 | 1013.1 |
| 20260904184628 | 64 | 351 | 1.0 | 1.0 | 0.00 | 0.00 | 0.00 | 81 | 1013.1 |
| 20260904184124 | 64 | 215 | 0.0 | 0.0 | 0.00 | 0.00 | 0.00 | 76 | 1013.1 |
| 20260904183620 | 64 | 138 | 1.0 | 1.0 | 0.00 | 0.00 | 0.00 | 75 | 1013.1 |
| 20260904183114 | 64 | 175 | 0.0 | 0.0 | 0.00 | 0.00 | 0.00 | 76 | 1013.4 |
| 20260904182609 | 62 | 179 | 3.0 | 3.0 | 0.00 | 0.00 | 0.00 | 75 | 1013.4 |
| 20260904182104 | 62 | 191 | 2.0 | 3.0 | 0.00 | 0.00 | 0.00 | 78 | 1013.1 |
| 20260904181600 | 61 | 184 | 1.0 | 1.0 | 0.00 | 0.00 | 0.00 | 78 | 1013.4 |
| 20260904181054 | 60 | 271 | 0.0 | 1.0 | 0.00 | 0.00 | 0.00 | 78 | 1013.1 |
| 20260904180549 | 59 | 186 | 1.0 | 2.0 | 0.00 | 0.00 | 0.00 | 83 | 1013.1 |
| 20260904180044 | 59 | 141 | 1.0 | 2.0 | 0.00 | 0.00 | 0.00 | 85 | 1013.4 |
| 20260904175544 | 58 | 212 | 1.0 | 1.0 | 0.00 | 0.00 | 0.00 | 88 | 1013.4 |
| 20260904175042 | 58 | 238 | 1.0 | 2.0 | 0.00 | 0.00 | 0.00 | 85 | 1013.4 |
| 20260904174537 | 58 | 235 | 0.0 | 0.0 | 0.00 | 0.00 | 0.00 | 88 | 1013.4 |
| 20260904174034 | 58 | 244 | 0.0 | 1.0 | 0.00 | 0.00 | 0.00 | 87 | 1013.4 |
| 20260904173534 | 58 | 164 | 2.0 | 2.0 | 0.00 | 0.00 | 0.00 | 89 | 1013.4 |
| 20260904173029 | 58 | 250 | 0.0 | 0.0 | 0.00 | 0.00 | 0.00 | 93 | 1013.4 |
| 20260904172526 | 58 | 214 | 0.0 | 1.0 | 0.00 | 0.00 | 0.00 | 90 | 1013.4 |
| 20260904172024 | 59 | 273 | 0.0 | 0.0 | 0.00 | 0.00 | 0.00 | 93 | 1013.1 |
| 20260904171520 | 58 | 185 | 1.0 | 2.0 | 0.00 | 0.00 | 0.00 | 90 | 1012.7 |
| 20260904171016 | 58 | 241 | 0.0 | 0.0 | 0.00 | 0.00 | 0.00 | 88 | 1013.1 |
| 20260904170511 | 57 | 141 | 2.0 | 3.0 | 0.00 | 0.00 | 0.00 | 88 | 1013.1 |
| 20260904170007 | 57 | 242 | 0.0 | 0.0 | 0.00 | 0.00 | 0.00 | 94 | 1013.1 |
| 20260904165506 | 56 | 269 | 0.0 | 0.0 | 0.00 | 0.00 | 0.00 | 94 | 1013.1 |
| 20260904165005 | 56 | 254 | 0.0 | 0.0 | 0.00 | 0.00 | 0.00 | 97 | 1013.1 |
| 20260904164500 | 55 | 305 | 0.0 | 0.0 | 0.00 | 0.00 | 0.00 | 97 | 1013.1 |
| 20260904163956 | 55 | 191 | 1.0 | 1.0 | 0.00 | 0.00 | 0.00 | 99 | 1013.1 |
| 20260904163456 | 55 | 263 | 0.0 | 0.0 | 0.00 | 0.00 | 0.00 | 99 | 1012.7 |
| 20260904162955 | 54 | 267 | 0.0 | 1.0 | 0.00 | 0.00 | 0.00 | 99 | 1013.1 |
| 20260904162451 | 53 | 268 | 0.0 | 1.0 | 0.00 | 0.00 | 0.00 | 99 | 1013.1 |
| 20260904161946 | 53 | 263 | 0.0 | 0.0 | 0.00 | 0.00 | 0.00 | 99 | 1013.1 |
| 20260904161442 | 53 | 260 | 0.0 | 0.0 | 0.00 | 0.00 | 0.00 | 99 | 1012.7 |
| 20260904160937 | 53 | 263 | 0.0 | 1.0 | 0.00 | 0.00 | 0.00 | 99 | 1012.7 |
| 20260904160432 | 53 | 241 | 0.0 | 0.0 | 0.00 | 0.00 | 0.00 | 99 | 1012.7 |
| 20260904155927 | 53 | 246 | 0.0 | 0.0 | 0.00 | 0.00 | 0.00 | 99 | 1012.7 |
| 20260904155422 | 52 | 246 | 0.0 | 0.0 | 0.00 | 0.00 | 0.00 | 99 | 1013.1 |
| 20260904154921 | 52 | 246 | 0.0 | 0.0 | 0.00 | 0.00 | 0.00 | 99 | 1012.7 |
| 20260904154421 | 52 | 246 | 0.0 | 0.0 | 0.00 | 0.00 | 0.00 | 99 | 1012.4 |
| 20260904153916 | 51 | 246 | 0.0 | 0.0 | 0.00 | 0.00 | 0.00 | 99 | 1012.7 |
| 20260904153411 | 51 | 254 | 0.0 | 0.0 | 0.00 | 0.00 | 0.00 | 99 | 1012.7 |
| 20260904152908 | 51 | 253 | 0.0 | 0.0 | 0.00 | 0.00 | 0.00 | 99 | 1012.7 |
| 20260904152402 | 51 | 253 | 0.0 | 0.0 | 0.00 | 0.00 | 0.00 | 99 | 1012.4 |
| 20260904151901 | 51 | 251 | 0.0 | 0.0 | 0.00 | 0.00 | 0.00 | 99 | 1012.4 |
| 20260904151356 | 50 | 251 | 0.0 | 0.0 | 0.00 | 0.00 | 0.00 | 99 | 1012.7 |
| 20260904150852 | 50 | 251 | 0.0 | 0.0 | 0.00 | 0.00 | 0.00 | 99 | 1012.4 |
| 20260904150347 | 50 | 251 | 0.0 | 0.0 | 0.00 | 0.00 | 0.00 | 99 | 1012.4 |
| 20260904145844 | 50 | 249 | 0.0 | 0.0 | 0.00 | 0.00 | 0.00 | 99 | 1012.4 |
| 20260904145341 | 50 | 248 | 0.0 | 0.0 | 0.00 | 0.00 | 0.00 | 99 | 1012.4 |
| 20260904144836 | 50 | 249 | 0.0 | 0.0 | 0.00 | 0.00 | 0.00 | 99 | 1012.4 |
| 20260904144332 | 50 | 249 | 0.0 | 0.0 | 0.00 | 0.00 | 0.00 | 99 | 1012.4 |
| 20260904143827 | 50 | 249 | 0.0 | 0.0 | 0.00 | 0.00 | 0.00 | 99 | 1012.4 |
| 20260904143324 | 50 | 249 | 0.0 | 0.0 | 0.00 | 0.00 | 0.00 | 99 | 1012.0 |
| 20260904142820 | 50 | 249 | 0.0 | 0.0 | 0.00 | 0.00 | 0.00 | 99 | 1012.4 |
| 20260904142316 | 50 | 249 | 0.0 | 0.0 | 0.00 | 0.00 | 0.00 | 99 | 1012.4 |
| 20260904141816 | 49 | 248 | 0.0 | 0.0 | 0.00 | 0.00 | 0.00 | 99 | 1012.4 |
| 20260904141311 | 49 | 248 | 0.0 | 0.0 | 0.00 | 0.00 | 0.00 | 99 | 1012.0 |
| 20260904140807 | 49 | 248 | 0.0 | 0.0 | 0.00 | 0.00 | 0.00 | 99 | 1012.0 |
| 20260904140302 | 49 | 249 | 0.0 | 0.0 | 0.00 | 0.00 | 0.00 | 99 | 1012.0 |
| 20260904135801 | 49 | 249 | 0.0 | 0.0 | 0.00 | 0.00 | 0.00 | 99 | 1012.0 |
| 20260904135256 | 49 | 249 | 0.0 | 0.0 | 0.00 | 0.00 | 0.00 | 99 | 1012.0 |
| 20260904134752 | 49 | 249 | 0.0 | 0.0 | 0.00 | 0.00 | 0.00 | 99 | 1012.0 |
| 20260904134251 | 49 | 249 | 0.0 | 0.0 | 0.00 | 0.00 | 0.00 | 99 | 1011.7 |
| 20260904133747 | 49 | 249 | 0.0 | 0.0 | 0.00 | 0.00 | 0.00 | 99 | 1011.7 |
| 20260904133243 | 48 | 248 | 0.0 | 0.0 | 0.00 | 0.00 | 0.00 | 99 | 1011.7 |
| 20260904132742 | 49 | 248 | 0.0 | 0.0 | 0.00 | 0.00 | 0.00 | 99 | 1011.7 |
| 20260904132238 | 49 | 248 | 0.0 | 0.0 | 0.00 | 0.00 | 0.00 | 99 | 1011.3 |
| 20260904131737 | 48 | 248 | 0.0 | 0.0 | 0.00 | 0.00 | 0.00 | 99 | 1011.7 |
| 20260904131233 | 49 | 248 | 0.0 | 0.0 | 0.00 | 0.00 | 0.00 | 99 | 1011.3 |
| 20260904130732 | 49 | 248 | 0.0 | 0.0 | 0.00 | 0.00 | 0.00 | 99 | 1011.3 |
| 20260904130231 | 48 | 248 | 0.0 | 0.0 | 0.00 | 0.00 | 0.00 | 99 | 1011.3 |
| 20260904125728 | 49 | 248 | 0.0 | 0.0 | 0.00 | 0.00 | 0.00 | 99 | 1011.3 |
| 20260904125224 | 49 | 249 | 0.0 | 0.0 | 0.00 | 0.00 | 0.00 | 99 | 1011.3 |
| 20260904124723 | 49 | 248 | 0.0 | 0.0 | 0.00 | 0.00 | 0.00 | 99 | 1011.3 |
| 20260904124220 | 49 | 248 | 0.0 | 0.0 | 0.00 | 0.00 | 0.00 | 99 | 1011.3 |
| 20260904123714 | 49 | 248 | 0.0 | 0.0 | 0.00 | 0.00 | 0.00 | 99 | 1011.3 |
| 20260904123210 | 49 | 248 | 0.0 | 0.0 | 0.00 | 0.00 | 0.00 | 99 | 1011.3 |
| 20260904122709 | 50 | 248 | 0.0 | 0.0 | 0.00 | 0.00 | 0.00 | 99 | 1011.3 |
| 20260904122204 | 50 | 248 | 0.0 | 0.0 | 0.00 | 0.00 | 0.00 | 99 | 1011.3 |
| 20260904121700 | 49 | 248 | 0.0 | 0.0 | 0.00 | 0.00 | 0.00 | 99 | 1011.3 |
| 20260904121155 | 49 | 248 | 0.0 | 0.0 | 0.00 | 0.00 | 0.00 | 99 | 1011.3 |
| 20260904120651 | 49 | 248 | 0.0 | 0.0 | 0.00 | 0.00 | 0.00 | 99 | 1011.3 |
| 20260904120148 | 49 | 248 | 0.0 | 0.0 | 0.00 | 0.00 | 0.00 | 99 | 1011.3 |
| 20260904115643 | 49 | 248 | 0.0 | 0.0 | 0.00 | 0.00 | 0.00 | 99 | 1011.3 |
| 20260904115137 | 49 | 248 | 0.0 | 0.0 | 0.00 | 0.00 | 0.00 | 99 | 1011.3 |
| 20260904114632 | 49 | 248 | 0.0 | 0.0 | 0.00 | 0.00 | 0.00 | 99 | 1011.3 |
| 20260904114131 | 49 | 248 | 0.0 | 0.0 | 0.00 | 0.00 | 0.00 | 99 | 1011.3 |
| 20260904113626 | 49 | 248 | 0.0 | 0.0 | 0.00 | 0.00 | 0.00 | 99 | 1011.3 |
| 20260904113125 | 49 | 248 | 0.0 | 0.0 | 0.00 | 0.00 | 0.00 | 99 | 1010.9 |
| 20260904112621 | 49 | 249 | 0.0 | 0.0 | 0.00 | 0.00 | 0.00 | 99 | 1010.9 |
| 20260904112117 | 49 | 235 | 0.0 | 0.0 | 0.00 | 0.00 | 0.00 | 99 | 1010.9 |
| 20260904111612 | 49 | 235 | 0.0 | 0.0 | 0.00 | 0.00 | 0.00 | 99 | 1010.9 |
| 20260904111108 | 48 | 234 | 0.0 | 0.0 | 0.00 | 0.00 | 0.00 | 99 | 1010.6 |
| 20260904110602 | 48 | 234 | 0.0 | 0.0 | 0.00 | 0.00 | 0.00 | 99 | 1010.6 |
| 20260904110057 | 48 | 235 | 0.0 | 0.0 | 0.00 | 0.00 | 0.00 | 99 | 1010.6 |
| 20260904105557 | 48 | 234 | 0.0 | 0.0 | 0.00 | 0.00 | 0.00 | 99 | 1010.6 |
| 20260904105052 | 48 | 235 | 0.0 | 0.0 | 0.00 | 0.00 | 0.00 | 99 | 1010.6 |
| 20260904104547 | 49 | 235 | 0.0 | 0.0 | 0.00 | 0.00 | 0.00 | 99 | 1010.6 |
| 20260904104043 | 49 | 234 | 0.0 | 0.0 | 0.00 | 0.00 | 0.00 | 99 | 1010.6 |
| 20260904103538 | 49 | 235 | 0.0 | 0.0 | 0.00 | 0.00 | 0.00 | 99 | 1010.3 |
| 20260904103035 | 49 | 234 | 0.0 | 0.0 | 0.00 | 0.00 | 0.00 | 99 | 1010.3 |
| 20260904102530 | 49 | 235 | 0.0 | 0.0 | 0.00 | 0.00 | 0.00 | 99 | 1010.3 |
| 20260904102025 | 50 | 234 | 0.0 | 0.0 | 0.00 | 0.00 | 0.00 | 99 | 1010.3 |
| 20260904101522 | 50 | 235 | 0.0 | 0.0 | 0.00 | 0.00 | 0.00 | 99 | 1009.9 |
| 20260904101017 | 50 | 234 | 0.0 | 0.0 | 0.00 | 0.00 | 0.00 | 99 | 1010.3 |
| 20260904100513 | 50 | 235 | 0.0 | 0.0 | 0.00 | 0.00 | 0.00 | 99 | 1010.3 |
| 20260904100008 | 49 | 235 | 0.0 | 0.0 | 0.00 | 0.00 | 0.00 | 99 | 1010.6 |
| 20260904095502 | 49 | 235 | 0.0 | 0.0 | 0.00 | 0.00 | 0.00 | 99 | 1010.3 |
| 20260904094957 | 49 | 235 | 0.0 | 0.0 | 0.00 | 0.00 | 0.00 | 99 | 1010.6 |
| 20260904094452 | 49 | 234 | 0.0 | 0.0 | 0.00 | 0.00 | 0.00 | 99 | 1010.3 |
| 20260904093948 | 50 | 235 | 0.0 | 0.0 | 0.00 | 0.00 | 0.00 | 99 | 1010.6 |
| 20260904093444 | 49 | 234 | 0.0 | 0.0 | 0.00 | 0.00 | 0.00 | 99 | 1010.3 |
| 20260904092939 | 49 | 234 | 0.0 | 0.0 | 0.00 | 0.00 | 0.00 | 99 | 1010.3 |
| 20260904092435 | 49 | 234 | 0.0 | 0.0 | 0.00 | 0.00 | 0.00 | 99 | 1010.3 |
| 20260904091931 | 49 | 234 | 0.0 | 0.0 | 0.00 | 0.00 | 0.00 | 99 | 1010.6 |
| 20260904091427 | 49 | 234 | 0.0 | 0.0 | 0.00 | 0.00 | 0.00 | 99 | 1010.3 |
| 20260904090921 | 50 | 234 | 0.0 | 0.0 | 0.00 | 0.00 | 0.00 | 99 | 1010.6 |
| 20260904090417 | 49 | 234 | 0.0 | 0.0 | 0.00 | 0.00 | 0.00 | 99 | 1010.6 |
| 20260904085911 | 50 | 234 | 0.0 | 0.0 | 0.00 | 0.00 | 0.00 | 99 | 1010.6 |
| 20260904085407 | 50 | 234 | 0.0 | 0.0 | 0.00 | 0.00 | 0.00 | 99 | 1010.6 |
| 20260904084901 | 50 | 234 | 0.0 | 0.0 | 0.00 | 0.00 | 0.00 | 99 | 1010.6 |
| 20260904084358 | 49 | 234 | 0.0 | 0.0 | 0.00 | 0.00 | 0.00 | 99 | 1010.6 |
| 20260904083853 | 49 | 234 | 0.0 | 0.0 | 0.00 | 0.00 | 0.00 | 99 | 1010.6 |
| 20260904083349 | 49 | 234 | 0.0 | 0.0 | 0.00 | 0.00 | 0.00 | 99 | 1010.6 |
| 20260904082845 | 49 | 234 | 0.0 | 0.0 | 0.00 | 0.00 | 0.00 | 99 | 1010.6 |
| 20260904082339 | 49 | 234 | 0.0 | 0.0 | 0.00 | 0.00 | 0.00 | 99 | 1010.6 |
| 20260904081834 | 49 | 234 | 0.0 | 0.0 | 0.00 | 0.00 | 0.00 | 99 | 1010.6 |
| 20260904081330 | 49 | 234 | 0.0 | 0.0 | 0.00 | 0.00 | 0.00 | 99 | 1010.6 |
| 20260904080827 | 49 | 234 | 0.0 | 0.0 | 0.00 | 0.00 | 0.00 | 99 | 1010.6 |
| 20260904080321 | 49 | 234 | 0.0 | 0.0 | 0.00 | 0.00 | 0.00 | 99 | 1010.9 |
| 20260904075818 | 49 | 234 | 0.0 | 0.0 | 0.00 | 0.00 | 0.00 | 99 | 1010.6 |
| 20260904075312 | 49 | 234 | 0.0 | 0.0 | 0.00 | 0.00 | 0.00 | 99 | 1010.6 |
| 20260904074811 | 49 | 236 | 0.0 | 0.0 | 0.00 | 0.00 | 0.00 | 99 | 1010.6 |
| 20260904074306 | 50 | 235 | 0.0 | 0.0 | 0.00 | 0.00 | 0.00 | 99 | 1010.6 |
| 20260904073802 | 49 | 285 | 0.0 | 0.0 | 0.00 | 0.00 | 0.00 | 99 | 1010.6 |
| 20260904073257 | 49 | 253 | 0.0 | 0.0 | 0.00 | 0.00 | 0.00 | 99 | 1010.6 |
| 20260904072754 | 49 | 278 | 0.0 | 0.0 | 0.00 | 0.00 | 0.00 | 99 | 1010.6 |
| 20260904072252 | 49 | 258 | 0.0 | 0.0 | 0.00 | 0.00 | 0.00 | 99 | 1010.6 |
| 20260904071748 | 49 | 258 | 0.0 | 0.0 | 0.00 | 0.00 | 0.00 | 99 | 1010.6 |
| 20260904071249 | 49 | 264 | 0.0 | 0.0 | 0.00 | 0.00 | 0.00 | 99 | 1010.3 |
| 20260904070743 | 49 | 250 | 0.0 | 0.0 | 0.00 | 0.00 | 0.00 | 99 | 1010.3 |
| 20260904070242 | 49 | 250 | 0.0 | 0.0 | 0.00 | 0.00 | 0.00 | 99 | 1010.6 |
| 20260904065737 | 50 | 250 | 0.0 | 0.0 | 0.00 | 0.60 | 0.60 | 99 | 1010.3 |
| 20260904065234 | 49 | 238 | 0.0 | 0.0 | 0.00 | 0.60 | 0.60 | 99 | 1010.3 |
| 20260904064733 | 50 | 237 | 0.0 | 0.0 | 0.00 | 0.60 | 0.60 | 99 | 1010.6 |
| 20260904064229 | 50 | 255 | 0.0 | 0.0 | 0.00 | 0.60 | 0.60 | 99 | 1010.3 |
| 20260904063725 | 50 | 255 | 0.0 | 0.0 | 0.00 | 0.60 | 0.60 | 99 | 1010.3 |
| 20260904063221 | 51 | 286 | 0.0 | 0.0 | 0.00 | 0.60 | 0.60 | 99 | 1010.3 |
| 20260904062717 | 51 | 287 | 0.0 | 1.0 | 0.00 | 0.60 | 0.60 | 99 | 1010.3 |
| 20260904062212 | 51 | 286 | 0.0 | 1.0 | 0.00 | 0.60 | 0.60 | 99 | 1010.3 |
| 20260904061707 | 51 | 286 | 0.0 | 1.0 | 0.00 | 0.60 | 0.60 | 99 | 1010.3 |
| 20260904061204 | 51 | 285 | 0.0 | 0.0 | 0.00 | 0.60 | 0.60 | 99 | 1010.3 |
| 20260904060700 | 51 | 285 | 2.0 | 2.0 | 0.00 | 0.60 | 0.60 | 99 | 1010.3 |
| 20260904060156 | 50 | 277 | 0.0 | 0.0 | 0.00 | 0.60 | 0.60 | 99 | 1010.3 |
| 20260904055650 | 49 | 277 | 0.0 | 0.0 | 0.00 | 0.60 | 0.60 | 99 | 1010.6 |
| 20260904055146 | 49 | 277 | 0.0 | 0.0 | 0.00 | 0.60 | 0.60 | 99 | 1010.3 |
| 20260904054641 | 49 | 277 | 0.0 | 0.0 | 0.00 | 0.60 | 0.60 | 99 | 1010.6 |
| 20260904054138 | 49 | 277 | 0.0 | 0.0 | 0.00 | 0.60 | 0.60 | 99 | 1010.3 |
| 20260904053638 | 49 | 277 | 0.0 | 0.0 | 0.00 | 0.60 | 0.60 | 99 | 1010.3 |
| 20260904053132 | 49 | 277 | 0.0 | 0.0 | 0.00 | 0.60 | 0.60 | 99 | 1010.6 |
| 20260904052629 | 49 | 277 | 0.0 | 0.0 | 0.00 | 0.60 | 0.60 | 99 | 1010.3 |
| 20260904052125 | 49 | 277 | 0.0 | 0.0 | 0.00 | 0.60 | 0.60 | 99 | 1010.6 |
| 20260904051621 | 49 | 277 | 0.0 | 0.0 | 0.00 | 0.60 | 0.60 | 99 | 1010.6 |
| 20260904051121 | 49 | 277 | 0.0 | 0.0 | 0.00 | 0.60 | 0.60 | 99 | 1010.3 |
| 20260904050616 | 49 | 277 | 0.0 | 0.0 | 0.00 | 0.60 | 0.60 | 99 | 1010.6 |
| 20260904050113 | 49 | 277 | 0.0 | 0.0 | 0.00 | 0.60 | 0.60 | 99 | 1010.6 |
| 20260904045607 | 50 | 277 | 0.0 | 0.0 | 0.00 | 0.60 | 0.60 | 99 | 1010.6 |
| 20260904045102 | 49 | 277 | 0.0 | 0.0 | 0.00 | 0.60 | 0.60 | 99 | 1010.6 |
| 20260904044557 | 49 | 277 | 0.0 | 0.0 | 0.00 | 0.60 | 0.60 | 99 | 1010.6 |
| 20260904044054 | 50 | 277 | 0.0 | 0.0 | 0.00 | 0.60 | 0.60 | 99 | 1010.6 |
| 20260904043550 | 50 | 277 | 0.0 | 0.0 | 0.00 | 0.60 | 0.60 | 99 | 1010.6 |
| 20260904043046 | 50 | 277 | 0.0 | 0.0 | 0.00 | 0.60 | 0.60 | 99 | 1010.6 |
| 20260904042542 | 50 | 277 | 0.0 | 0.0 | 0.00 | 0.60 | 0.60 | 99 | 1010.6 |
| 20260904042037 | 50 | 277 | 0.0 | 0.0 | 0.00 | 0.60 | 0.60 | 99 | 1010.6 |
| 20260904041532 | 51 | 278 | 0.0 | 0.0 | 0.00 | 0.60 | 0.60 | 99 | 1010.6 |
| 20260904041029 | 51 | 279 | 0.0 | 0.0 | 0.00 | 0.60 | 0.60 | 99 | 1010.6 |
| 20260904040528 | 51 | 275 | 0.0 | 0.0 | 0.00 | 0.60 | 0.60 | 99 | 1010.6 |
| 20260904040026 | 50 | 274 | 0.0 | 0.0 | 0.00 | 0.60 | 0.60 | 99 | 1010.3 |
| 20260904035525 | 50 | 274 | 0.0 | 0.0 | 0.00 | 0.60 | 0.60 | 99 | 1010.3 |
| 20260904035025 | 50 | 274 | 0.0 | 0.0 | 0.00 | 0.60 | 0.60 | 99 | 1010.3 |
| 20260904034520 | 51 | 274 | 0.0 | 0.0 | 0.00 | 0.60 | 0.60 | 99 | 1010.3 |
| 20260904034015 | 50 | 274 | 0.0 | 0.0 | 0.00 | 0.60 | 0.60 | 99 | 1010.3 |
| 20260904033511 | 50 | 274 | 0.0 | 0.0 | 0.00 | 0.60 | 0.60 | 99 | 1009.9 |
| 20260904033009 | 51 | 274 | 0.0 | 0.0 | 0.00 | 0.60 | 0.60 | 99 | 1010.3 |
| 20260904032503 | 51 | 274 | 0.0 | 0.0 | 0.00 | 0.60 | 0.60 | 99 | 1009.9 |
| 20260904032002 | 51 | 274 | 0.0 | 0.0 | 0.00 | 0.60 | 0.60 | 99 | 1009.9 |
| 20260904031457 | 51 | 274 | 0.0 | 0.0 | 0.00 | 0.60 | 0.60 | 99 | 1009.9 |
| 20260904030953 | 51 | 274 | 0.0 | 0.0 | 0.00 | 0.60 | 0.60 | 99 | 1009.9 |
| 20260904030449 | 51 | 274 | 0.0 | 0.0 | 0.00 | 0.60 | 0.60 | 99 | 1009.9 |
| 20260904025944 | 52 | 274 | 0.0 | 0.0 | 0.00 | 0.60 | 0.60 | 99 | 1009.9 |
| 20260904025440 | 52 | 274 | 0.0 | 0.0 | 0.00 | 0.60 | 0.60 | 99 | 1009.9 |
| 20260904024940 | 52 | 274 | 0.0 | 0.0 | 0.00 | 0.60 | 0.60 | 99 | 1009.9 |
| 20260904024435 | 52 | 274 | 0.0 | 0.0 | 0.00 | 0.60 | 0.60 | 99 | 1009.9 |
| 20260904023931 | 52 | 274 | 0.0 | 0.0 | 0.00 | 0.60 | 0.60 | 99 | 1009.6 |
| 20260904023427 | 53 | 274 | 0.0 | 0.0 | 0.00 | 0.60 | 0.60 | 99 | 1009.6 |
| 20260904022926 | 53 | 274 | 0.0 | 0.0 | 0.00 | 0.60 | 0.60 | 99 | 1009.6 |
| 20260904022423 | 53 | 274 | 0.0 | 0.0 | 0.00 | 0.60 | 0.60 | 99 | 1009.6 |
| 20260904021919 | 54 | 274 | 0.0 | 0.0 | 0.00 | 0.60 | 0.60 | 99 | 1009.6 |
| 20260904021414 | 54 | 274 | 0.0 | 0.0 | 0.00 | 0.60 | 0.60 | 99 | 1009.6 |
| 20260904020909 | 55 | 274 | 0.0 | 0.0 | 0.00 | 0.60 | 0.60 | 99 | 1009.6 |
| 20260904020405 | 55 | 274 | 0.0 | 0.0 | 0.00 | 0.60 | 0.60 | 99 | 1009.2 |
| 20260904015903 | 55 | 274 | 0.0 | 0.0 | 0.00 | 0.60 | 0.60 | 99 | 1009.6 |
| 20260904015359 | 55 | 275 | 0.0 | 0.0 | 0.00 | 0.60 | 0.60 | 99 | 1009.2 |
| 20260904014857 | 55 | 275 | 0.0 | 0.0 | 0.00 | 0.60 | 0.60 | 99 | 1009.2 |